This is the latest recevied weather packets stored in our database for station/object KF7SOJ. If no packets are shown the sender has not sent any weather packets the latest 10 day(s).
| Time | Temp. | Humidity | Pressure | Rain* | Wind** | Luminosity | Snow |
|---|---|---|---|---|---|---|---|
| 1777941317 | 13.33° C | 37% | 929.6 hPa | 0 mm | - | 116 W/m² | - |
| 1777941014 | 13.33° C | 36% | 929.6 hPa | 0 mm | - | 144 W/m² | - |
| 1777940709 | 13.33° C | 37% | 929.6 hPa | 0 mm | - | 238 W/m² | - |
| 1777940408 | 12.78° C | 37% | 929.6 hPa | 0 mm | - | 194 W/m² | - |
| 1777940105 | 12.78° C | 37% | 929.8 hPa | 0 mm | - | 184 W/m² | - |
| 1777939802 | 12.78° C | 38% | 929.7 hPa | 0 mm | - | 162 W/m² | - |
| 1777939500 | 12.78° C | 38% | 929.7 hPa | 0 mm | - | 151 W/m² | - |
| 1777939197 | 12.78° C | 37% | 929.7 hPa | 0 mm | - | 135 W/m² | - |
| 1777938894 | 12.78° C | 38% | 929.6 hPa | 0 mm | - | 131 W/m² | - |
| 1777938590 | 12.78° C | 37% | 929.6 hPa | 0 mm | - | 158 W/m² | - |
| 1777938288 | 12.78° C | 37% | 929.5 hPa | 0 mm | - | 165 W/m² | - |
| 1777937984 | 12.78° C | 38% | 929.5 hPa | 0 mm | - | 157 W/m² | - |
| 1777937680 | 12.78° C | 37% | 929.6 hPa | 0 mm | - | 164 W/m² | - |
| 1777937377 | 13.33° C | 38% | 929.5 hPa | 0 mm | - | 160 W/m² | - |
| 1777937074 | 13.33° C | 38% | 929.3 hPa | 0 mm | - | 130 W/m² | - |
| 1777936771 | 12.78° C | 38% | 929.4 hPa | 0 mm | - | 198 W/m² | - |
| 1777936467 | 12.78° C | 37% | 929.4 hPa | 0 mm | - | 145 W/m² | - |
| 1777936164 | 12.78° C | 38% | 929.4 hPa | 0 mm | - | 170 W/m² | - |
| 1777935861 | 12.78° C | 39% | 929.5 hPa | 0 mm | - | 196 W/m² | - |
| 1777935560 | 12.78° C | 38% | 929.5 hPa | 0 mm | - | 167 W/m² | - |
| 1777935256 | 12.78° C | 37% | 929.7 hPa | 0 mm | - | 202 W/m² | - |
| 1777934954 | 12.78° C | 38% | 929.4 hPa | 0 mm | - | 182 W/m² | - |
| 1777934650 | 12.78° C | 39% | 929.5 hPa | 0 mm | - | 164 W/m² | - |
| 1777934347 | 12.78° C | 38% | 929.6 hPa | 0 mm | - | 159 W/m² | - |
| 1777934042 | 12.78° C | 38% | 929.7 hPa | 0 mm | - | 185 W/m² | - |
* Rain latest hour (hover to see other rain measurements)
** Current wind speed in m/s (hover to see current wind gust speed)